Temperature
24 23 22 22 21 21 21 20 20 20 20 19 19 18 18 18 18 18 18 18 18 18 18 18 18 18 18 18 18 18 18 18 18 18 18 18 18 18 18 18 18 18 18
24 23 22 22 21 21 21 21 21 20 20 19 19 19 19 18 18 18 18 18 18 18 18 18 18 18 18 18 17 17 18 18 18 18 18 18 19 19 19 18 18 18 18
25 23 23 22 22 21 21 21 21 20 20 19 19 19 19 18 18 18 18 18 18 18 18 18 18 18 17 17 17 17 17 18 18 18 18 18 19 19 19 18 18 18 18
25 24 23 23 22 22 22 22 21 21 20 20 19 19 18 18 18 18 18 18 18 18 18 18 18 18 17 17 17 17 17 17 17 17 17 17 18 18 19 19 18 18 17
26 25 24 23 23 22 22 21 21 21 21 20 20 19 19 18 18 18 18 18 18 18 18 18 18 18 17 17 17 17 17 17 17 17 17 17 17 17 18 18 18 18 17
26 25 24 23 23 22 22 21 21 21 21 20 20 19 19 19 18 18 18 18 18 18 18 18 18 18 17 17 17 17 17 17 17 17 17 17 17 17 17 17 17 17 17
26 25 24 23 22 22 22 21 21 21 21 20 20 20 19 19 19 18 18 18 18 18 18 18 18 17 17 17 17 17 17 17 17 17 17 17 17 17 17 17 17 17 17
26 25 24 23 22 22 22 21 21 21 21 20 20 20 19 19 18 18 18 18 18 18 18 17 17 17 17 17 17 17 17 17 17 17 16 16 16 16 16 16 16 16 16
26 25 24 23 22 22 22 21 21 21 21 20 20 20 19 19 18 18 18 18 18 17 17 17 17 17 17 17 17 17 16 16 16 16 16 16 16 16 16 16 16 16 16
25 25 24 23 22 22 21 21 21 21 20 20 20 19 19 19 18 18 18 18 18 18 17 17 17 17 17 17 17 16 16 16 16 16 16 16 16 16 16 16 16 15 15
25 24 23 23 22 22 21 21 21 21 20 20 20 19 19 19 18 18 18 18 18 17 17 17 17 17 16 16 16 16 16 16 16 16 16 16 16 16 16 15 15 15 15
25 24 23 22 22 21 21 21 21 20 20 20 20 19 19 19 18 18 18 17 17 17 17 17 17 16 16 16 16 16 16 15 15 15 15 15 15 15 15 15 15 15 15
24 23 22 22 21 21 21 20 20 20 20 20 19 19 19 18 18 18 18 17 17 17 17 17 16 16 16 16 16 15 15 15 15 15 15 15 15 15 15 15 14 14 14
23 23 22 21 21 21 20 20 20 20 20 19 19 19 18 18 18 17 17 17 17 17 16 16 16 16 16 15 15 15 15 15 15 15 14 14 14 14 14 14 14 14 14
23 22 22 21 21 21 20 20 20 20 19 19 19 18 18 18 18 17 17 17 17 16 16 16 16 15 15 15 15 15 15 14 14 14 14 14 14 14 14 14 14 14 13
23 22 21 21 21 20 20 20 20 20 19 19 18 18 18 18 17 17 17 16 16 16 16 15 15 15 15 15 15 14 14 14 14 13 13 13 13 13 13 13 13 13 13
22 22 21 21 20 20 20 20 20 19 19 19 18 18 18 17 17 16 16 16 16 15 15 15 15 15 14 14 14 14 14 13 13 13 13 13 13 13 13 13 12 12 12
22 21 21 21 20 20 20 20 20 19 19 18 18 18 17 17 16 16 16 15 15 15 14 14 14 14 14 14 14 14 13 13 13 13 12 12 12 12 12 12 12 12 12
22 21 21 20 20 20 20 19 19 19 18 18 18 17 17 16 16 15 15 15 14 14 14 14 13 13 13 13 13 13 13 13 12 12 12 12 12 12 12 12 11 11 11
21 21 20 20 20 19 19 19 18 18 18 18 17 17 16 16 15 15 15 14 14 14 14 13 13 13 13 13 13 13 12 12 12 12 12 12 12 12 11 11 11 11 10
20 20 20 20 19 19 19 18 18 18 18 17 17 16 16 16 15 15 14 14 14 14 13 13 13 13 12 12 12 12 12 12 11 11 11 11 11 11 11 11 11 10 10
20 20 20 19 19 19 18 18 18 17 17 17 16 16 16 15 15 14 14 14 13 13 13 13 12 12 12 12 12 12 12 11 11 11 10 10 10 10 10 10 10 10 10
19 19 19 19 18 18 18 18 17 17 17 16 16 16 15 15 15 14 14 13 13 13 13 12 12 12 12 12 11 11 11 11 11 10 10 10 10 10 10 10 10 9 9
18 18 18 18 18 17 17 17 17 17 16 16 15 15 15 14 14 14 13 13 13 13 12 12 12 12 11 11 11 11 11 11 10 10 10 10 10 9 9 9 9 9 9
18 18 18 18 17 17 17 16 16 16 16 15 15 14 14 13 13 13 13 13 13 12 12 12 12 12 11 11 11 11 10 10 10 10 9 9 9 9 9 9 9 9 9
17 17 17 17 16 16 16 16 16 16 15 14 14 14 13 13 13 13 13 12 12 12 12 12 11 11 11 11 10 10 10 10 10 10 10 9 9 9 9 9 9 8 8
Wind_Speed
11 10 11 10 10 9 9 9 9 8 7 5 5 5 4 4 4 4 4 5 6 5 5 4 4 4 4 5 6 6 7 6 5 5 6 7 8 8 7 7 7 7 7
11 11 11 10 10 10 10 10 10 9 8 6 5 4 4 4 3 3 3 5 5 5 5 4 5 5 4 6 6 6 5 5 4 4 5 5 5 6 7 6 6 6 5
13 13 12 11 11 11 11 10 10 8 8 7 5 4 4 4 4 3 3 4 5 5 5 5 5 5 6 5 6 6 6 6 4 5 5 4 4 3 4 4 4 4 4
12 12 12 11 11 11 10 10 9 8 8 7 7 7 5 5 4 3 3 4 4 5 5 5 5 6 6 6 7 6 6 6 6 5 6 7 5 4 3 3 3 3 3
12 12 12 11 10 10 9 9 8 8 8 7 7 7 6 5 3 3 3 4 3 4 4 5 5 5 5 5 6 5 5 5 6 5 4 5 6 7 5 4 3 2 3
11 10 10 9 9 9 9 9 8 8 8 8 7 7 6 5 4 3 3 3 3 3 4 4 4 4 4 4 5 4 5 4 5 5 4 5 4 5 5 5 5 3 2
10 10 10 10 10 10 9 9 9 8 7 7 7 6 6 5 5 4 3 3 3 2 3 3 3 3 4 4 3 3 4 4 4 5 4 5 5 4 4 5 5 4 3
10 10 10 10 10 10 9 9 9 7 7 7 6 5 5 4 3 3 3 3 3 3 2 2 2 3 3 3 2 2 2 2 3 4 4 4 4 3 3 4 4 4 3
9 10 10 10 10 9 9 9 8 7 6 6 5 4 4 3 3 2 2 2 2 2 2 2 2 2 3 2 2 2 2 1 2 2 3 3 3 3 3 3 4 4 4
9 10 10 9 9 9 8 8 7 7 6 6 5 4 3 2 2 1 0 1 1 2 2 2 2 3 3 2 2 1 1 1 1 1 1 2 2 2 2 3 3 3 3
10 10 9 9 9 9 9 8 8 7 6 5 4 3 3 3 2 1 1 1 1 2 2 2 3 3 2 2 2 2 2 2 2 1 1 1 2 1 1 1 1 1 1
9 10 10 10 9 9 9 8 8 7 6 6 6 5 4 3 3 2 1 1 2 2 2 2 2 2 3 3 2 2 3 3 3 3 3 3 2 2 2 1 1 0 1
9 9 10 9 9 8 8 7 7 7 6 6 6 6 5 4 3 3 2 2 2 2 2 3 3 3 3 3 4 4 5 5 5 4 4 4 4 3 3 2 2 1 1
9 9 9 9 8 8 7 7 7 7 7 7 6 6 5 4 3 3 3 3 3 3 3 4 4 4 4 5 5 5 6 6 6 6 6 6 6 5 4 3 4 3 3
9 9 9 9 8 8 8 8 8 8 7 7 6 6 5 5 4 4 4 4 4 4 4 5 5 5 5 5 5 5 6 7 7 8 8 9 10 11 9 6 5 4 3
9 9 9 9 9 9 8 9 8 8 8 7 7 6 5 5 5 5 5 5 5 5 5 6 6 7 7 8 9 6 7 7 8 8 8 8 10 11 12 13 12 10 6
9 9 9 9 8 8 9 9 9 9 8 7 7 7 6 6 5 6 5 5 5 6 6 6 7 8 9 9 9 8 7 8 8 8 7 7 8 8 8 9 9 11 11
9 9 9 9 9 9 9 9 9 9 8 8 7 6 6 6 6 6 6 5 5 6 6 7 7 8 8 7 6 6 8 9 8 8 8 8 8 8 7 8 10 10 10
8 9 9 9 9 9 9 9 9 8 8 8 7 7 7 6 6 6 6 6 6 6 6 6 7 7 7 7 5 3 7 8 9 8 8 8 8 8 7 8 9 9 9
8 8 9 9 9 8 9 9 8 8 7 7 7 7 7 7 7 7 7 6 6 6 6 7 6 6 6 6 6 4 5 7 7 7 9 11 9 9 8 7 8 8 7
8 9 9 9 8 8 9 9 8 7 7 7 7 7 7 7 7 7 7 6 6 7 7 7 6 6 6 6 6 6 4 5 6 6 7 7 9 10 9 7 7 6 3
9 9 9 8 7 8 8 8 7 7 7 7 8 8 7 7 7 8 7 7 7 7 7 6 6 5 5 6 6 8 7 5 6 6 7 7 8 9 9 8 6 3 2
9 8 9 9 7 7 8 8 7 8 8 8 8 8 8 7 7 8 7 6 6 5 5 5 5 5 5 6 7 8 8 7 6 7 8 7 5 5 7 7 3 2 3
8 8 9 9 8 7 7 7 8 8 8 9 8 8 8 8 7 6 5 5 5 5 5 5 5 5 5 4 5 6 6 7 6 6 7 6 4 4 5 4 3 4 5
7 8 8 8 8 7 7 8 8 9 9 8 8 8 7 7 7 6 4 3 3 2 3 4 4 4 5 4 4 3 4 4 5 4 4 4 4 4 4 4 4 3 3
8 8 8 8 8 8 7 7 8 8 9 8 7 6 6 6 6 7 6 10 8 8 8 7 3 5 7 8 7 7 7 5 1 2 4 3 3 3 3 3 3 3 3
Wind_Direction
196 192 195 198 199 202 201 204 208 203 207 215 220 224 235 250 256 258 261 265 267 263 260 275 271 266 262 263 255 252 248 247 252 263 261 250 240 237 239 239 244 238 237
194 192 197 200 203 202 204 206 210 208 208 212 224 228 241 247 246 264 272 271 269 267 257 259 268 265 262 261 260 252 260 254 236 249 263 258 238 225 231 228 230 243 243
197 195 199 203 203 204 205 206 207 208 210 211 212 213 218 240 242 248 259 269 270 270 273 272 270 274 269 264 262 256 255 259 252 238 250 265 258 252 219 219 229 235 249
202 200 199 202 202 200 199 201 201 204 204 205 214 219 231 240 246 251 262 261 261 267 265 264 266 267 269 272 266 257 256 254 255 242 241 257 282 273 252 221 216 226 247
201 201 202 199 198 195 192 192 193 197 200 205 209 220 234 242 248 248 257 264 263 268 270 270 271 270 271 274 277 275 260 255 257 254 250 250 251 250 260 264 266 250 250
199 199 197 190 188 187 186 185 184 191 195 200 210 219 228 236 251 255 264 264 266 273 279 277 277 275 276 272 267 265 258 262 261 260 254 251 252 251 248 256 264 267 269
192 189 186 179 176 176 178 180 180 184 188 196 207 214 222 230 241 256 261 275 287 288 291 292 286 283 279 274 268 256 267 268 261 254 252 251 256 264 260 258 268 276 274
179 178 176 172 169 170 173 178 179 181 183 186 193 208 214 228 240 249 274 284 293 302 315 306 302 305 303 293 283 277 272 270 267 261 254 252 251 254 250 253 259 263 264
169 168 166 164 163 165 169 172 171 171 173 177 179 191 204 223 246 255 257 282 300 315 338 339 337 332 330 322 304 318 317 313 294 273 251 253 251 253 256 255 250 249 259
159 159 158 157 156 156 156 159 158 159 162 169 175 168 179 190 207 235 330 356 357 357 351 354 353 349 351 343 334 348 29 22 6 337 310 281 276 260 261 262 264 255 252
149 147 145 144 146 148 150 151 149 150 153 154 152 151 149 149 150 140 95 51 22 13 3 2 3 3 9 14 24 28 46 46 35 5 351 342 333 316 283 262 255 252 238
140 142 140 143 147 148 148 149 148 148 153 150 145 142 135 131 124 108 77 59 48 34 27 21 21 22 28 33 41 42 48 52 47 31 20 15 19 9 339 350 359 63 211
142 142 142 145 147 149 148 148 148 147 148 144 140 137 133 126 116 102 83 67 58 45 42 44 39 37 37 42 52 54 55 54 51 44 38 32 30 22 24 26 37 42 80
148 148 145 145 144 147 147 147 144 142 142 139 137 133 127 120 116 106 96 84 75 66 57 55 53 52 54 58 61 62 61 58 53 48 45 42 42 37 40 49 47 53 76
156 153 149 146 147 147 145 144 140 137 137 138 135 131 127 123 118 110 103 95 88 82 73 70 68 65 64 57 60 71 69 65 61 59 58 57 55 48 44 49 50 55 72
162 158 153 150 152 153 150 145 141 138 138 136 132 130 129 126 121 118 113 106 94 85 81 76 74 70 65 53 45 55 73 69 68 66 65 69 64 66 64 60 55 49 57
167 163 160 156 156 155 151 148 145 142 140 138 137 138 138 132 129 126 118 109 102 95 88 84 81 78 67 57 57 55 76 75 69 67 64 63 63 60 70 77 79 64 52
169 165 161 156 155 150 149 146 145 145 144 142 140 140 141 134 128 123 115 107 100 97 92 86 85 85 73 56 58 70 84 79 73 68 69 71 65 57 56 74 72 70 61
166 162 159 153 149 149 147 145 147 148 148 147 146 145 143 138 136 129 120 114 109 103 97 92 88 87 78 50 36 42 95 87 79 71 64 66 72 43 33 76 80 77 76
155 152 149 144 144 147 148 149 151 152 150 148 147 143 142 142 138 131 127 121 116 111 105 94 90 88 83 55 28 1 99 96 94 88 82 67 60 44 31 71 80 81 76
147 146 144 142 142 147 151 151 151 151 147 144 141 141 140 137 131 126 125 125 122 114 106 100 93 86 80 79 46 19 79 98 98 93 86 75 57 53 43 50 71 68 70
149 146 142 139 141 148 152 151 150 144 141 141 140 138 135 133 130 128 127 127 125 121 117 111 106 99 92 77 74 57 49 42 94 91 90 88 78 69 58 62 49 6 0
148 147 144 141 143 150 153 152 148 146 144 143 140 136 132 128 133 136 136 137 139 136 135 132 124 114 109 100 91 84 70 52 82 89 81 86 103 118 95 73 23 2 59
146 148 146 144 144 149 150 146 144 148 146 143 140 139 137 134 132 137 139 143 145 146 146 141 134 128 127 126 126 123 118 121 115 113 117 125 99 95 90 108 81 62 52
146 147 146 145 145 144 142 143 146 148 146 146 145 146 145 139 134 125 100 126 112 109 144 144 145 145 140 109 70 105 122 121 116 134 139 131 120 108 99 91 76 69 67
147 143 141 142 143 142 140 144 150 151 150 151 154 154 148 143 142 132 105 52 59 64 56 49 70 99 98 113 100 85 79 80 122 180 129 119 108 96 89 87 83 73 58
Height
1547 1549 1551 1553 1554 1555 1556 1557 1559 1560 1561 1562 1563 1564 1564 1564 1565 1565 1564 1564 1564 1564 1563 1563 1563 1563 1562 1562 1562 1562 1563 1563 1563 1563 1563 1563 1563 1564 1564 1564 1565 1565 1566
1544 1546 1548 1550 1552 1553 1554 1555 1557 1558 1559 1560 1560 1561 1562 1563 1563 1563 1562 1562 1562 1561 1561 1560 1560 1560 1559 1559 1559 1559 1559 1560 1560 1561 1560 1560 1561 1560 1561 1561 1561 1562 1562
1540 1543 1545 1547 1549 1550 1551 1553 1554 1556 1557 1558 1558 1559 1560 1560 1560 1560 1560 1560 1559 1559 1558 1558 1557 1557 1556 1556 1556 1556 1556 1556 1557 1557 1558 1558 1557 1557 1558 1557 1558 1558 1559
1537 1540 1542 1544 1546 1548 1549 1551 1552 1554 1555 1556 1557 1558 1558 1559 1559 1558 1558 1557 1556 1556 1555 1555 1554 1554 1554 1553 1553 1553 1553 1553 1553 1553 1554 1555 1555 1556 1555 1555 1555 1555 1555
1533 1536 1539 1541 1544 1546 1547 1549 1550 1552 1553 1554 1554 1555 1556 1557 1557 1556 1556 1555 1555 1554 1553 1552 1552 1551 1551 1550 1549 1549 1549 1549 1549 1550 1551 1551 1552 1552 1553 1552 1552 1552 1552
1530 1533 1536 1539 1541 1543 1545 1547 1548 1549 1550 1551 1552 1553 1554 1554 1554 1554 1554 1554 1553 1552 1551 1551 1550 1549 1548 1547 1546 1546 1546 1546 1546 1546 1547 1548 1548 1549 1549 1549 1549 1549 1549
1527 1530 1533 1536 1538 1540 1542 1545 1546 1547 1548 1549 1550 1551 1552 1552 1553 1553 1553 1552 1552 1551 1550 1549 1548 1547 1545 1545 1544 1543 1543 1543 1543 1543 1544 1544 1545 1545 1546 1546 1546 1546 1546
1525 1528 1531 1533 1536 1538 1541 1543 1544 1545 1547 1548 1548 1549 1550 1551 1551 1551 1551 1551 1550 1549 1548 1547 1546 1545 1544 1543 1542 1542 1541 1541 1540 1540 1540 1541 1541 1542 1542 1543 1543 1543 1544
1523 1526 1529 1532 1534 1537 1539 1541 1543 1544 1545 1546 1547 1548 1548 1549 1550 1549 1549 1549 1548 1548 1547 1545 1544 1543 1542 1541 1540 1540 1539 1539 1538 1538 1538 1538 1539 1539 1540 1540 1540 1542 1541
1522 1525 1528 1531 1533 1535 1538 1540 1542 1543 1544 1545 1546 1547 1547 1547 1548 1548 1548 1547 1547 1546 1545 1544 1543 1542 1540 1539 1539 1538 1538 1537 1537 1536 1536 1536 1537 1537 1537 1537 1537 1538 1539
1521 1525 1527 1530 1532 1534 1537 1538 1540 1542 1543 1544 1545 1546 1546 1546 1547 1547 1547 1546 1546 1545 1544 1543 1542 1540 1539 1538 1538 1537 1537 1536 1536 1535 1535 1535 1534 1534 1534 1534 1534 1535 1536
1521 1524 1526 1529 1531 1534 1536 1537 1539 1541 1542 1543 1544 1545 1545 1546 1546 1546 1546 1545 1545 1544 1543 1542 1541 1540 1539 1538 1537 1537 1536 1536 1535 1535 1534 1534 1534 1533 1533 1533 1533 1533 1533
1521 1524 1526 1528 1531 1533 1535 1537 1538 1540 1541 1543 1543 1544 1545 1545 1545 1545 1545 1544 1544 1543 1543 1541 1540 1539 1539 1538 1537 1537 1536 1536 1535 1535 1534 1534 1533 1532 1532 1532 1532 1532 1533
1520 1523 1525 1527 1529 1532 1534 1536 1537 1539 1540 1541 1542 1543 1544 1544 1544 1544 1544 1544 1543 1543 1542 1541 1540 1540 1539 1538 1538 1537 1537 1536 1536 1535 1535 1534 1533 1533 1532 1532 1531 1531 1532
1519 1522 1524 1526 1528 1530 1532 1535 1536 1538 1539 1540 1542 1542 1543 1543 1544 1544 1543 1543 1543 1543 1542 1542 1541 1540 1540 1539 1539 1539 1538 1537 1537 1537 1536 1535 1534 1533 1533 1532 1532 1532 1532
1518 1521 1523 1525 1527 1529 1531 1533 1535 1537 1538 1539 1541 1542 1542 1543 1543 1543 1544 1544 1543 1543 1543 1542 1542 1541 1541 1540 1540 1540 1539 1539 1538 1538 1537 1537 1536 1535 1534 1533 1533 1533 1533
1516 1519 1521 1523 1526 1528 1530 1532 1534 1535 1537 1538 1540 1541 1542 1542 1543 1543 1544 1544 1544 1543 1543 1543 1543 1542 1542 1541 1541 1541 1541 1540 1540 1539 1539 1539 1538 1537 1537 1536 1535 1535 1535
1515 1517 1519 1522 1525 1527 1529 1531 1533 1534 1536 1537 1538 1540 1541 1541 1542 1543 1544 1544 1544 1544 1544 1544 1543 1543 1543 1543 1542 1542 1542 1542 1541 1541 1541 1540 1540 1539 1539 1538 1538 1537 1537
1513 1516 1518 1521 1523 1525 1527 1529 1532 1533 1535 1536 1537 1538 1540 1541 1542 1542 1543 1544 1544 1544 1545 1544 1544 1544 1544 1544 1544 1544 1544 1543 1543 1543 1543 1542 1542 1541 1541 1540 1540 1539 1539
1511 1514 1517 1519 1521 1524 1526 1528 1530 1532 1533 1535 1536 1537 1539 1540 1541 1542 1543 1544 1544 1545 1545 1545 1545 1545 1545 1545 1545 1545 1546 1545 1545 1545 1545 1544 1544 1543 1543 1542 1542 1541 1542
1509 1512 1515 1517 1520 1522 1524 1527 1528 1530 1532 1533 1535 1536 1538 1539 1540 1541 1542 1543 1545 1545 1545 1546 1546 1546 1546 1546 1546 1546 1547 1547 1547 1547 1547 1546 1546 1545 1545 1544 1544 1544 1544
1508 1511 1513 1516 1518 1520 1523 1525 1527 1529 1530 1532 1533 1535 1537 1538 1540 1541 1542 1544 1545 1545 1546 1546 1547 1547 1547 1547 1547 1547 1547 1548 1548 1548 1548 1548 1548 1547 1547 1546 1546 1546 1546
1507 1509 1512 1514 1517 1519 1521 1523 1525 1527 1529 1531 1532 1534 1536 1537 1539 1540 1542 1543 1544 1546 1546 1547 1548 1548 1548 1548 1548 1548 1548 1548 1548 1549 1549 1549 1549 1549 1549 1548 1548 1548 1549
1506 1508 1510 1513 1515 1517 1520 1522 1524 1526 1528 1530 1532 1533 1535 1536 1538 1540 1542 1543 1544 1545 1547 1547 1548 1548 1548 1549 1549 1549 1549 1549 1550 1550 1550 1550 1551 1551 1550 1550 1550 1550 1549
1504 1507 1509 1511 1514 1516 1519 1521 1522 1524 1527 1529 1531 1533 1535 1536 1537 1539 1541 1543 1544 1545 1546 1547 1547 1548 1548 1549 1549 1550 1550 1551 1551 1551 1552 1553 1553 1553 1553 1552 1551 1551 1551
1503 1505 1508 1511 1513 1515 1518 1520 1522 1523 1525 1528 1531 1532 1534 1536 1537 1538 1539 1541 1543 1544 1545 1546 1547 1547 1548 1548 1548 1549 1550 1550 1551 1553 1554 1554 1554 1554 1553 1553 1552 1552 1551